[[{"header":{"parameterUnit":"m.s-1","parameterCategory":1,"la1":30.2991,"la2":30.254,"lo1":-89.0895,"lo2":-89.0444,"dy":0.0017,"dx":0.0017,"nx":28,"ny":28,"refTime":"2024-07-31T21:00:00:Z","depth":0,"parameterNumber":2,"parameterNumberName":"U-component_of_WINDS"},"data":[0,0,0,0,0,0,0,0,0,0,0,0,0,0,0,0,0,0,0,0,0,0,0,0,0,0,0,0,0,0,0,0,0,0,0,0,0,0,0,0,0,0,0,0,0,0,0,0,0,0,0,0,0,0,0,0,0,0,2.4621,2.4622,0,2.4703,2.4704,2.4704,2.4695,2.4694,2.4692,2.4691,2.4778,2.4781,2.4785,0,0,0,0,0,0,0,0,0,0,0,0,0,2.4461,2.4464,2.4621,2.4622,2.4623,2.4702,2.4704,2.4705,2.4695,2.4693,2.4692,2.469,2.4777,2.4781,2.4785,0,0,0,0,0,0,0,0,0,0,0,0,0,2.4535,2.4465,2.4621,2.4628,2.4629,2.4702,2.4704,2.4705,2.4695,2.4693,2.4691,2.469,2.4775,2.478,2.4786,2.4858,0,0,2.4802,2.4804,0,0,0,0,0,0,0,0,2.4531,2.4541,2.4626,2.4627,2.4629,2.4686,2.4679,2.4756,2.4696,2.467,2.4691,2.4689,2.4749,2.4757,2.4776,2.4862,2.4866,2.4802,2.4806,2.4808,2.4809,0,0,0,0,0,0,0,2.4526,2.4538,2.4653,2.4627,2.4629,2.4628,2.4636,2.4694,2.472,2.4672,2.4672,2.4682,2.475,2.4771,2.4778,2.4867,2.4802,2.4807,2.481,2.4812,2.5017,2.502,0,0,0,0,0,0,2.4519,2.4533,2.4651,2.4656,2.4574,2.4633,2.4642,2.467,2.4719,2.4725,2.4683,2.4681,2.4763,2.4772,2.4781,2.4869,2.4808,2.4813,2.4816,2.5015,2.5018,2.502,0,0,0,0,0,0,2.4515,2.4529,2.4648,2.4595,2.4609,2.4637,2.4669,2.4673,2.4694,2.4727,2.4732,2.47,2.4762,2.4774,2.4839,2.4872,2.4815,2.482,2.5012,2.5016,2.5019,2.5046,0,0,0,0,0,0,2.4511,2.4528,2.4555,2.4595,2.4612,2.4703,2.4671,2.4676,2.4703,2.4701,2.4744,2.475,2.4761,2.4831,2.4844,2.4879,2.4824,2.501,2.5014,2.5018,2.5043,2.505,2.5057,0,0,0,0,0,2.4505,2.456,2.4556,2.457,2.4646,2.4705,2.4715,2.4726,2.4706,2.4733,2.4755,2.4748,2.4867,2.4838,2.4853,2.4889,2.5008,2.5013,2.5018,2.5039,2.5049,2.5057,0,0,0,0,0,0,2.4523,2.4565,2.4562,2.4631,2.4664,2.4703,2.4738,2.4735,2.4776,2.4772,2.4785,2.4795,2.4861,2.4882,2.4849,2.4962,2.4935,2.4943,2.4946,2.4955,2.4962,2.4956,2.4829,0,0,0,0,0,2.4535,2.4578,2.4613,2.4671,2.4687,2.471,2.4736,2.4741,2.4777,2.4791,2.4818,2.4853,2.4899,2.4928,2.4972,2.5046,2.5056,2.5078,2.5085,2.5091,2.5098,2.514,2.515,2.5037,2.5037,2.5037,0,0,2.4561,2.4589,2.4615,2.4675,2.4701,2.4747,2.4722,2.4771,2.4805,2.4799,2.4862,2.4883,2.4924,2.4994,2.5026,2.5013,2.5132,2.5098,2.5102,2.5106,2.5146,2.5156,2.5166,2.5041,2.504,2.5039,0,0,2.463,2.4655,2.4706,2.4733,2.4773,2.4788,2.4801,2.484,2.4853,2.4917,2.4914,2.4955,2.5033,2.5062,2.5087,2.5169,2.5164,2.5183,2.522,2.526,2.5269,2.5277,2.5306,2.5316,2.5189,2.519,2.519,0,2.4656,2.4723,2.4733,2.4782,2.4809,2.4806,2.4858,2.4885,2.4937,2.4957,2.4941,2.5039,2.5066,2.5143,2.5163,2.5184,2.5199,2.5177,2.5266,2.5274,2.5282,2.531,2.5321,2.5191,2.5191,2.5191,2.5191,0,2.4754,2.4801,2.4837,2.4887,2.4919,2.4969,2.4988,2.5019,2.5022,2.5039,2.5104,2.5137,2.5187,2.5206,2.521,2.5284,2.5275,2.5263,2.5235,2.5295,2.5321,2.5332,2.5194,2.5194,2.5193,2.5192,0,0,2.4836,2.4892,2.4905,2.4928,2.4972,2.5009,2.5061,2.5109,2.5135,2.5172,2.5216,2.5282,2.5271,2.53,2.5308,2.5343,2.5406,2.5327,2.5328,2.534,2.549,2.5498,2.5511,2.5404,2.5406,2.5407,2.5487,0,2.491,2.4999,2.501,2.5089,2.5133,2.5131,2.5176,2.5209,2.5227,2.5267,2.5287,2.5334,2.5316,2.5333,2.5368,2.5391,2.5436,2.5385,2.5445,2.5447,2.5434,2.5525,2.5534,2.5607,2.5497,2.5499,2.55,0,2.5007,2.5045,2.5129,2.5168,2.5187,2.5227,2.5273,2.5311,2.5349,2.536,2.5392,2.5395,2.545,2.542,2.5496,2.5461,2.5487,2.5502,2.5505,2.551,2.5477,2.5533,2.563,2.5641,2.5517,2.5515,2.5514,0,2.5058,2.5131,2.5191,2.5211,2.5258,2.5286,2.5308,2.5344,2.5372,2.5413,2.5431,2.5478,2.5504,2.554,2.5557,2.5534,2.5632,2.5604,2.5643,2.5642,2.5663,2.5661,2.5765,2.568,2.568,2.5679,2.5679,0,2.5138,2.519,2.5215,2.5251,2.5309,2.5323,2.538,2.54,2.5433,2.5474,2.5476,2.5515,2.5535,2.5578,2.5591,2.5652,2.5664,2.5674,2.5677,2.5674,2.5672,2.569,2.5686,2.5682,2.5682,2.5681,2.5681,0,2.5205,2.5224,2.5289,2.5328,2.5339,2.538,2.5415,2.5451,2.5469,2.5521,2.5535,2.5563,2.5613,2.5633,2.5695,2.5704,2.5774,2.5774,2.5761,2.5762,2.5799,2.5796,2.5919,2.5936,2.5839,2.584,2.5841,0,2.5255,2.5294,2.5338,2.5365,2.5387,2.5432,2.5461,2.5476,2.5506,2.5553,2.5584,2.5634,2.5675,2.5756,2.5782,2.583,2.583,2.587,2.5837,2.5833,2.5831,2.5828,2.5832,2.5876,2.5877,2.5878,2.5878,0,2.5341,2.5349,2.539,2.5435,2.5469,2.5505,2.5541,2.5564,2.5585,2.5619,2.567,2.5702,2.5765,2.5815,2.5864,2.5887,2.5887,2.5889,2.59,2.5897,2.5888,2.5893,2.5777,2.5886,2.5885,2.5884,2.5884,2.5884,2.5401,2.5436,2.5472,2.5518,2.5546,2.558,2.5616,2.5638,2.568,2.5732,2.5739,2.5794,2.5832,2.5898,2.5924,2.5968,2.5957,2.5974,2.5978,2.5982,2.5984,2.5881,2.5977,2.5977,2.5976,2.5976,2.5976,0,2.5487,2.551,2.5553,2.5602,2.5639,2.5634,2.5674,2.5705,2.5753,2.5788,2.5828,2.5887,2.5936,2.5967,2.6016,2.6046,2.6047,2.6058,2.6056,2.6061,2.5991,2.5976,2.6056,2.6056,2.6056,2.6056,2.6056,2.6056,2.5536,2.5595,2.5607,2.5681,2.5705,2.5757,2.578,2.5812,2.584,2.5905,2.5946,2.5965,2.5999,2.6051,2.6096,2.6104,2.6122,2.6134,2.6141,2.6075,2.6066,2.6058,2.6044,2.6138,2.6138,2.6208,2.6209,2.6209]},{"header":{"parameterUnit":"m.s-1","parameterCategory":1,"la1":30.2991,"la2":30.254,"lo1":-89.0895,"lo2":-89.0444,"dy":0.0017,"dx":0.0017,"nx":28,"ny":28,"refTime":"2024-07-31T21:00:00:Z","depth":0,"parameterNumber":3,"parameterNumberName":"V-component_of_WINDS"},"data":[0,0,0,0,0,0,0,0,0,0,0,0,0,0,0,0,0,0,0,0,0,0,0,0,0,0,0,0,0,0,0,0,0,0,0,0,0,0,0,0,0,0,0,0,0,0,0,0,0,0,0,0,0,0,0,0,0,0,-0.5691,-0.569,0,-0.5668,-0.5668,-0.5667,-0.5639,-0.5638,-0.5638,-0.5637,-0.5614,-0.5614,-0.5614,0,0,0,0,0,0,0,0,0,0,0,0,0,-0.5711,-0.5711,-0.5691,-0.569,-0.569,-0.5668,-0.5668,-0.5667,-0.5639,-0.5638,-0.5637,-0.5637,-0.5614,-0.5614,-0.5614,0,0,0,0,0,0,0,0,0,0,0,0,0,-0.5697,-0.5711,-0.5691,-0.5673,-0.5671,-0.5668,-0.5667,-0.5667,-0.5639,-0.5638,-0.5637,-0.5637,-0.5614,-0.5614,-0.5614,-0.5626,0,0,-0.5613,-0.5613,0,0,0,0,0,0,0,0,-0.5698,-0.5696,-0.5676,-0.5674,-0.5672,-0.5655,-0.5666,-0.5653,-0.5639,-0.5651,-0.5637,-0.5636,-0.5629,-0.5627,-0.5624,-0.5625,-0.5624,-0.5613,-0.5613,-0.5613,-0.5613,0,0,0,0,0,0,0,-0.5699,-0.5697,-0.5682,-0.5676,-0.5674,-0.5667,-0.5664,-0.5664,-0.5644,-0.565,-0.5648,-0.5646,-0.5627,-0.5625,-0.5624,-0.5624,-0.5613,-0.5613,-0.5613,-0.5613,-0.5635,-0.5636,0,0,0,0,0,0,-0.5702,-0.5698,-0.5682,-0.5681,-0.5684,-0.5667,-0.5664,-0.5661,-0.5644,-0.5641,-0.5646,-0.5644,-0.5625,-0.5624,-0.5623,-0.5637,-0.5613,-0.5613,-0.5612,-0.5634,-0.5635,-0.5636,0,0,0,0,0,0,-0.5703,-0.5701,-0.5683,-0.5689,-0.5686,-0.5668,-0.5665,-0.5661,-0.5659,-0.5641,-0.5637,-0.5647,-0.5625,-0.5623,-0.5626,-0.5636,-0.5612,-0.5612,-0.5633,-0.5634,-0.5635,-0.5665,0,0,0,0,0,0,-0.5703,-0.5701,-0.5705,-0.5689,-0.5686,-0.5686,-0.5665,-0.5661,-0.5658,-0.5655,-0.5641,-0.5638,-0.5624,-0.5626,-0.5626,-0.5635,-0.5612,-0.5632,-0.5634,-0.5635,-0.5663,-0.5667,-0.567,0,0,0,0,0,-0.5704,-0.5714,-0.5706,-0.5704,-0.569,-0.5687,-0.5685,-0.5669,-0.5659,-0.5663,-0.5652,-0.5638,-0.5635,-0.5627,-0.5626,-0.5635,-0.5632,-0.5633,-0.5635,-0.5661,-0.5666,-0.567,0,0,0,0,0,0,-0.5732,-0.5712,-0.5702,-0.5707,-0.5699,-0.5682,-0.5687,-0.5675,-0.5669,-0.5667,-0.5648,-0.5645,-0.565,-0.5643,-0.5634,-0.5647,-0.5631,-0.5633,-0.5651,-0.5656,-0.5659,-0.5661,-0.5612,0,0,0,0,0,-0.5739,-0.5737,-0.572,-0.5726,-0.5722,-0.5705,-0.5703,-0.5692,-0.5683,-0.5679,-0.5668,-0.566,-0.5658,-0.5656,-0.5653,-0.5662,-0.5659,-0.5668,-0.5671,-0.5674,-0.5676,-0.5682,-0.5686,-0.5641,-0.5641,-0.5641,0,0,-0.5752,-0.5741,-0.5741,-0.5731,-0.5723,-0.5723,-0.5703,-0.5703,-0.5703,-0.5679,-0.5682,-0.5673,-0.5663,-0.567,-0.5672,-0.5664,-0.5688,-0.5676,-0.5679,-0.5679,-0.5684,-0.5688,-0.5692,-0.5643,-0.5642,-0.5642,0,0,-0.5777,-0.5768,-0.5773,-0.5766,-0.5755,-0.5744,-0.5745,-0.5731,-0.5724,-0.5726,-0.5709,-0.5709,-0.5704,-0.5698,-0.5695,-0.5719,-0.5707,-0.5719,-0.5738,-0.5744,-0.5747,-0.575,-0.576,-0.5764,-0.572,-0.572,-0.572,0,-0.5796,-0.5794,-0.5777,-0.5779,-0.5775,-0.5755,-0.576,-0.5754,-0.5743,-0.5741,-0.5732,-0.5727,-0.5718,-0.5724,-0.573,-0.5727,-0.5729,-0.572,-0.5748,-0.5751,-0.5753,-0.5763,-0.5766,-0.5722,-0.5722,-0.5722,-0.5721,0,-0.5818,-0.5818,-0.5823,-0.5813,-0.581,-0.5813,-0.5797,-0.5797,-0.5786,-0.5776,-0.5779,-0.5769,-0.5763,-0.5764,-0.5753,-0.5768,-0.5763,-0.5751,-0.5735,-0.576,-0.5768,-0.5771,-0.5724,-0.5724,-0.5723,-0.5723,0,0,-0.5859,-0.5841,-0.5843,-0.5839,-0.5826,-0.5825,-0.5828,-0.5823,-0.5824,-0.5816,-0.5819,-0.5817,-0.5806,-0.5802,-0.579,-0.5795,-0.5817,-0.5783,-0.5782,-0.5791,-0.5835,-0.5845,-0.5849,-0.5809,-0.5809,-0.581,-0.5836,0,-0.5883,-0.5887,-0.5872,-0.588,-0.588,-0.5861,-0.5864,-0.5857,-0.5848,-0.5847,-0.5838,-0.5837,-0.5822,-0.5819,-0.5824,-0.5814,-0.5826,-0.5811,-0.5812,-0.5812,-0.5816,-0.5853,-0.5863,-0.5889,-0.5839,-0.584,-0.584,0,-0.591,-0.5906,-0.5914,-0.5902,-0.5901,-0.5904,-0.5899,-0.5898,-0.589,-0.5883,-0.588,-0.5867,-0.587,-0.5854,-0.5859,-0.585,-0.5849,-0.5844,-0.5845,-0.5845,-0.5828,-0.5855,-0.5896,-0.59,-0.5845,-0.5844,-0.5844,0,-0.5941,-0.5937,-0.5941,-0.5938,-0.5924,-0.5927,-0.5921,-0.5912,-0.591,-0.5906,-0.5905,-0.5901,-0.5899,-0.5897,-0.5884,-0.5873,-0.5891,-0.5874,-0.5886,-0.5887,-0.5891,-0.5891,-0.5933,-0.5889,-0.5889,-0.5889,-0.5889,0,-0.5969,-0.5975,-0.5955,-0.5958,-0.5965,-0.5948,-0.5956,-0.5948,-0.5941,-0.5943,-0.5926,-0.5928,-0.591,-0.591,-0.59,-0.5906,-0.5905,-0.5901,-0.5898,-0.5903,-0.5903,-0.5903,-0.5901,-0.589,-0.589,-0.589,-0.5889,0,-0.6005,-0.5992,-0.5996,-0.5982,-0.5979,-0.5985,-0.5973,-0.5976,-0.5967,-0.5969,-0.5969,-0.5954,-0.5954,-0.5941,-0.5937,-0.5931,-0.5942,-0.5935,-0.5945,-0.5943,-0.5957,-0.5956,-0.6001,-0.6006,-0.5958,-0.5958,-0.5958,0,-0.6024,-0.6029,-0.6016,-0.6016,-0.6011,-0.6011,-0.601,-0.5994,-0.5993,-0.5985,-0.5989,-0.5988,-0.5986,-0.5987,-0.5976,-0.5974,-0.5968,-0.5984,-0.5968,-0.5973,-0.597,-0.597,-0.5971,-0.5988,-0.5988,-0.5989,-0.5989,0,-0.606,-0.6054,-0.6052,-0.6049,-0.6047,-0.6044,-0.6039,-0.604,-0.6023,-0.6023,-0.6023,-0.6022,-0.6019,-0.6018,-0.6015,-0.6009,-0.5997,-0.5994,-0.5997,-0.6003,-0.6008,-0.6007,-0.5955,-0.5993,-0.5993,-0.5993,-0.5992,-0.5992,-0.6089,-0.6093,-0.6085,-0.6084,-0.6079,-0.6075,-0.6078,-0.6069,-0.6068,-0.6065,-0.6056,-0.6058,-0.6051,-0.6044,-0.604,-0.6042,-0.6034,-0.6038,-0.6039,-0.6041,-0.6044,-0.6007,-0.6041,-0.6041,-0.6041,-0.6041,-0.6041,0,-0.6125,-0.612,-0.6119,-0.6113,-0.6113,-0.6101,-0.6096,-0.6097,-0.6098,-0.6093,-0.6092,-0.6092,-0.6092,-0.6082,-0.608,-0.6083,-0.6078,-0.6084,-0.6084,-0.6083,-0.605,-0.6049,-0.6088,-0.6088,-0.6088,-0.6088,-0.6088,-0.6088,-0.6144,-0.615,-0.6143,-0.6147,-0.6141,-0.6143,-0.6141,-0.6138,-0.6134,-0.6135,-0.6135,-0.6128,-0.6121,-0.6119,-0.6119,-0.6116,-0.6116,-0.6124,-0.612,-0.609,-0.6085,-0.6081,-0.6079,-0.6124,-0.6125,-0.6152,-0.6153,-0.6153]}]]